Simultaneous Nadir Overpasses (SNOs) Predictions

Prediction of SNOs between GOES-17 and TERRA Satellite Orbit:

Table of predicted SNOs for the next 14.0 days since TLE Epoch: 12/1/2024
Index Date Time (GOES-17) GOES-17 Lat,Lon TERRA Lat,Lon Distance(km) Time Diff (sec)
1 12/02/2024 04:30:18 0.00,-104.67 0.19,-103.85 93.55 80
2 12/02/2024 16:49:58 -0.00,-104.71 0.82,-108.64 446.19 80
3 12/04/2024 16:34:19 -0.01,-104.70 -0.11,-104.22 54.82 80
4 12/05/2024 04:54:08 0.01,-104.66 -0.91,-109.04 497.52 80
5 12/07/2024 04:33:08 0.00,-104.65 0.02,-104.62 3.93 80
6 12/09/2024 16:34:27 -0.00,-104.68 0.08,-104.98 33.96 80
7 12/11/2024 16:18:46 -0.00,-104.68 -0.89,-100.56 468.65 80
8 12/12/2024 04:38:34 0.01,-104.64 -0.17,-105.37 83.22 80
9 12/14/2024 04:17:32 0.00,-104.63 0.80,-100.95 419.11 80
10 12/14/2024 16:37:11 -0.00,-104.66 0.24,-105.72 121.02 80
